TimeCDT,TemperatureF,Dew PointF,Humidity,Sea Level PressureIn,VisibilityMPH,Wind Direction,Wind SpeedMPH,Gust SpeedMPH,PrecipitationIn,Events,Conditions,WindDirDegrees,DateUTC
12:14 AM,64.4,62.6,94,30.16,10.0,Calm,Calm,-,N/A,,Clear,0,2013-09-05 05:14:00
12:34 AM,64.4,62.6,94,30.16,10.0,Calm,Calm,-,N/A,,Clear,0,2013-09-05 05:34:00
12:54 AM,64.4,62.6,94,30.17,10.0,NNE,4.6,-,N/A,,Clear,20,2013-09-05 05:54:00
1:14 AM,64.4,62.6,94,30.17,10.0,NNE,4.6,-,N/A,,Clear,20,2013-09-05 06:14:00
1:34 AM,64.4,62.6,94,30.17,10.0,Calm,Calm,-,N/A,,Clear,0,2013-09-05 06:34:00
1:54 AM,62.6,60.8,94,30.17,10.0,NNE,3.5,-,N/A,,Clear,30,2013-09-05 06:54:00
2:14 AM,62.6,60.8,94,30.17,10.0,Calm,Calm,-,N/A,,Clear,0,2013-09-05 07:14:00
2:34 AM,62.6,60.8,94,30.17,10.0,Calm,Calm,-,N/A,,Clear,0,2013-09-05 07:34:00
2:54 AM,62.6,60.8,94,30.18,10.0,Calm,Calm,-,N/A,,Clear,0,2013-09-05 07:54:00
3:14 AM,62.6,60.8,94,30.18,10.0,Calm,Calm,-,N/A,,Clear,0,2013-09-05 08:14:00
3:33 AM,62.6,60.8,94,30.18,10.0,Calm,Calm,-,N/A,,Mostly Cloudy,0,2013-09-05 08:33:00
3:54 AM,62.6,60.8,94,30.18,10.0,Calm,Calm,-,N/A,,Mostly Cloudy,0,2013-09-05 08:54:00
4:14 AM,62.6,59.0,88,30.18,10.0,NE,3.5,-,N/A,,Scattered Clouds,40,2013-09-05 09:14:00
4:34 AM,62.6,59.0,88,30.18,10.0,Calm,Calm,-,N/A,,Clear,0,2013-09-05 09:34:00
4:54 AM,62.6,59.0,88,30.19,10.0,Calm,Calm,-,N/A,,Clear,0,2013-09-05 09:54:00
5:14 AM,60.8,57.2,88,30.18,10.0,NE,3.5,-,N/A,,Clear,50,2013-09-05 10:14:00
5:34 AM,60.8,57.2,88,30.18,10.0,Calm,Calm,-,N/A,,Clear,0,2013-09-05 10:34:00
5:54 AM,62.6,57.2,82,30.19,10.0,Calm,Calm,-,N/A,,Mostly Cloudy,0,2013-09-05 10:54:00
6:14 AM,60.8,57.2,88,30.20,10.0,Calm,Calm,-,N/A,,Overcast,0,2013-09-05 11:14:00
6:34 AM,62.6,57.2,82,30.20,10.0,Calm,Calm,-,N/A,,Overcast,0,2013-09-05 11:34:00
6:53 AM,62.6,57.2,82,30.21,10.0,NE,4.6,-,N/A,,Overcast,40,2013-09-05 11:53:00
7:14 AM,62.6,57.2,82,30.21,10.0,Calm,Calm,-,N/A,,Overcast,0,2013-09-05 12:14:00
7:34 AM,62.6,57.2,82,30.22,10.0,Calm,Calm,-,N/A,,Mostly Cloudy,0,2013-09-05 12:34:00
7:53 AM,62.6,57.2,82,30.22,10.0,Calm,Calm,-,N/A,,Mostly Cloudy,0,2013-09-05 12:53:00
8:14 AM,62.6,57.2,82,30.22,10.0,ENE,3.5,-,N/A,,Scattered Clouds,70,2013-09-05 13:14:00
8:34 AM,64.4,59.0,83,30.21,10.0,East,4.6,-,N/A,,Clear,80,2013-09-05 13:34:00
8:54 AM,66.2,59.0,78,30.21,10.0,East,4.6,-,N/A,,Clear,90,2013-09-05 13:54:00
9:14 AM,68.0,60.8,78,30.21,10.0,East,4.6,-,N/A,,Clear,80,2013-09-05 14:14:00
9:33 AM,69.8,60.8,73,30.21,10.0,ENE,6.9,-,N/A,,Clear,70,2013-09-05 14:33:00
9:54 AM,71.6,62.6,73,30.21,10.0,East,5.8,-,N/A,,Mostly Cloudy,100,2013-09-05 14:54:00
10:14 AM,73.4,62.6,69,30.22,10.0,East,4.6,-,N/A,,Mostly Cloudy,90,2013-09-05 15:14:00
10:33 AM,73.4,64.4,73,30.22,10.0,East,5.8,-,N/A,,Mostly Cloudy,80,2013-09-05 15:33:00
10:54 AM,75.2,64.4,69,30.22,10.0,East,3.5,-,N/A,,Scattered Clouds,90,2013-09-05 15:54:00
11:14 AM,77.0,66.2,69,30.22,10.0,East,6.9,-,N/A,,Scattered Clouds,100,2013-09-05 16:14:00
11:34 AM,78.8,66.2,65,30.22,10.0,SE,6.9,-,N/A,,Clear,130,2013-09-05 16:34:00
11:54 AM,78.8,66.2,65,30.22,10.0,East,8.1,-,N/A,,Mostly Cloudy,90,2013-09-05 16:54:00
12:13 PM,78.8,66.2,65,30.22,10.0,East,5.8,-,N/A,,Mostly Cloudy,90,2013-09-05 17:13:00
12:34 PM,80.6,66.2,61,30.22,10.0,East,5.8,-,N/A,,Overcast,100,2013-09-05 17:34:00
12:54 PM,80.6,66.2,61,30.21,10.0,ESE,6.9,-,N/A,,Mostly Cloudy,110,2013-09-05 17:54:00
1:13 PM,82.4,66.2,58,30.21,10.0,SE,9.2,-,N/A,,Mostly Cloudy,140,2013-09-05 18:13:00
1:34 PM,80.6,66.2,61,30.20,10.0,ESE,5.8,-,N/A,,Clear,110,2013-09-05 18:34:00
1:54 PM,82.4,68.0,62,30.20,10.0,ESE,6.9,-,N/A,,Clear,110,2013-09-05 18:54:00
2:13 PM,82.4,68.0,62,30.19,10.0,SE,6.9,-,N/A,,Clear,140,2013-09-05 19:13:00
2:34 PM,84.2,69.8,62,30.18,10.0,ENE,5.8,-,N/A,,Clear,70,2013-09-05 19:34:00
2:54 PM,84.2,69.8,62,30.17,10.0,East,6.9,-,N/A,,Scattered Clouds,100,2013-09-05 19:54:00
3:14 PM,82.4,69.8,66,30.17,10.0,ESE,8.1,-,N/A,,Scattered Clouds,110,2013-09-05 20:14:00
3:34 PM,82.4,69.8,66,30.17,10.0,East,8.1,-,N/A,,Scattered Clouds,80,2013-09-05 20:34:00
3:54 PM,82.4,69.8,66,30.16,10.0,East,5.8,-,N/A,,Scattered Clouds,100,2013-09-05 20:54:00
4:14 PM,84.2,69.8,62,30.16,10.0,ESE,8.1,-,N/A,,Scattered Clouds,120,2013-09-05 21:14:00
4:34 PM,82.4,69.8,66,30.16,10.0,East,8.1,-,N/A,,Scattered Clouds,90,2013-09-05 21:34:00
4:53 PM,82.4,69.8,66,30.15,10.0,East,9.2,-,N/A,,Scattered Clouds,90,2013-09-05 21:53:00
5:14 PM,82.4,69.8,66,30.15,10.0,East,10.4,-,N/A,,Clear,100,2013-09-05 22:14:00
5:34 PM,82.4,69.8,66,30.15,10.0,East,6.9,-,N/A,,Clear,100,2013-09-05 22:34:00
5:53 PM,82.4,69.8,66,30.15,10.0,East,9.2,-,N/A,,Clear,90,2013-09-05 22:53:00
6:14 PM,80.6,69.8,70,30.14,10.0,ESE,10.4,-,N/A,,Clear,110,2013-09-05 23:14:00
6:34 PM,80.6,69.8,70,30.14,10.0,ESE,11.5,-,N/A,,Clear,110,2013-09-05 23:34:00
6:54 PM,78.8,69.8,74,30.14,10.0,East,8.1,-,N/A,,Clear,100,2013-09-05 23:54:00
7:14 PM,78.8,69.8,74,30.14,10.0,ESE,5.8,-,N/A,,Clear,110,2013-09-06 00:14:00
7:33 PM,77.0,69.8,78,30.14,10.0,ESE,6.9,-,N/A,,Clear,110,2013-09-06 00:33:00
7:54 PM,75.2,69.8,83,30.14,10.0,East,8.1,-,N/A,,Clear,100,2013-09-06 00:54:00
8:14 PM,75.2,69.8,83,30.14,10.0,ESE,9.2,-,N/A,,Clear,110,2013-09-06 01:14:00
8:33 PM,73.4,69.8,88,30.14,10.0,ESE,9.2,-,N/A,,Clear,120,2013-09-06 01:33:00
8:54 PM,73.4,69.8,88,30.15,10.0,ESE,6.9,-,N/A,,Clear,120,2013-09-06 01:54:00
9:14 PM,73.4,69.8,88,30.15,10.0,ESE,6.9,-,N/A,,Clear,120,2013-09-06 02:14:00
9:33 PM,71.6,69.8,94,30.15,10.0,ESE,8.1,-,N/A,,Clear,120,2013-09-06 02:33:00
9:54 PM,71.6,69.8,94,30.14,10.0,SE,6.9,-,N/A,,Clear,130,2013-09-06 02:54:00
10:13 PM,71.6,69.8,94,30.14,10.0,SE,6.9,-,N/A,,Clear,130,2013-09-06 03:13:00
10:34 PM,71.6,69.8,94,30.14,10.0,SE,6.9,-,N/A,,Clear,140,2013-09-06 03:34:00
10:54 PM,71.6,69.8,94,30.14,10.0,SE,5.8,-,N/A,,Clear,140,2013-09-06 03:54:00
11:13 PM,71.6,69.8,94,30.14,10.0,SE,5.8,-,N/A,,Clear,140,2013-09-06 04:13:00
11:34 PM,71.6,69.8,94,30.13,10.0,SSE,5.8,-,N/A,,Clear,150,2013-09-06 04:34:00
11:54 PM,71.6,69.8,94,30.13,10.0,SE,6.9,-,N/A,,Clear,140,2013-09-06 04:54:00